Upstream stations:
Downstream station:
SHEF ID: COMO2 Neosho River nr Commerce, OK
STATION TYPE:
Regulating: Stage = 15.00, Flow = 22115
PRECIP STAGE STAGE(2) RIV-FLOW BAT-LOAD
in ft ft cfs volt
Ccp-Rev Ccp-Rev Ccp-Rev Ccp-Rev Ccp-Rev
(US/Central)
04/06 00:00 0.00 4.43 3.44 3133 12.65
04/06 01:00 0.00 4.43 3.51 3133 12.65
04/06 02:00 0.00 4.43 3.56 3133 12.65
04/06 03:00 0.00 4.43 2.64 3133 12.57
04/06 04:00 0.00 4.42 2.69 3117 12.57
04/06 05:00 0.00 4.42 3.66 3117 12.57
04/06 06:00 0.00 4.42 3.22 3117 12.57
04/06 07:00 0.00 4.41 4.38 3101 12.57
04/06 08:00 0.00 4.41 4.06 3101 12.57
04/06 09:00 0.10 4.40 3.96 3085 13.13
04/06 10:00 0.00 4.40 3.88 3085 13.60
04/06 11:00 0.00 4.40 2.88 3085 13.53
04/06 12:00 0.00 4.39 3.85 3069 13.68
04/06 13:00 0.00 4.38 4.04 3053 13.44
04/06 14:00 0.00 4.38 2.96 3053 13.37
04/06 15:00 0.00 4.36 3.03 3022 13.29
04/06 16:00 0.00 4.36 3.22 3022 13.21
04/06 17:00 0.00 4.36 3.94 3022 13.05
04/06 18:00 0.00 4.36 4.08 3022 13.05
04/06 19:00 0.00 4.36 4.33 3022 12.81
04/06 20:00 0.00 4.35 3.41 3006 12.73
04/06 21:00 0.00 4.35 3.54 3006 12.73
04/06 22:00 0.00 4.35 3.60 3006 12.65
04/06 23:00 0.00 4.35 2.46 3006 12.65